Change the Weather History Date:

Thursday, November 7, 2013

  Actual Average Record
Temperature  
Mean Temperature 51 °F 47 °F  
Max Temperature 60 °F 57 °F 75 °F (1938)
Min Temperature 41 °F 38 °F 24 °F (1962)
Degree Days  
Heating Degree Days 14 18  
Month to date heating degree days 108 117  
Since 1 July heating degree days 454 529  
Cooling Degree Days 0 0  
Month to date cooling degree days 0 0  
Year to date cooling degree days 1105 1002  
Growing Degree Days 2 (Base 50)    
Moisture  
Dew Point 45 °F    
Average Humidity 69    
Maximum Humidity 93    
Minimum Humidity 45    
Precipitation  
Precipitation 0.27 in 0.10 in 1.55 in (1963)
Month to date precipitation 0.71 0.71  
Year to date precipitation 37.18 34.99  
Snow  
Snow 0.00 in - - ()
Month to date snowfall 0.0  
Since 1 July snowfall 0.0  
Since 1 September snowfall 0.0  
Snow Depth 0.00 in    
Sea Level Pressure  
Sea Level Pressure 29.93 in    
Wind  
Wind Speed 11 mph (WNW)    
Max Wind Speed 26 mph    
Max Gust Speed 33 mph    
Visibility 8 miles    
Events Rain    
T = Trace of Precipitation, MM = Missing Value Source: NWS Daily Summary

Daily Weather History Graph

Daily Weather History Graph

Search for Another Location

Airport or City:

Trip Planner

Search our weather history database for the weather conditions in past years. The results will help you decide how hot, cold, wet, or windy it might be!

Date:

Astronomy

Nov. 07, 2013 Rise Set
Actual Time 6:43 AM EST 4:57 PM EST
Civil Twilight 6:15 AM EST 5:25 PM EST
Nautical Twilight 5:42 AM EST 5:58 PM EST
Astronomical Twilight 5:10 AM EST 6:30 PM EST
Moon 10:50 AM EST (11/7) 9:06 PM EST (11/7)
Length of Visible Light 11h 10m
Length of Day
10h 13m
Waxing Crescent, 22% of the Moon is Illuminated
Nov 7
Waxing Crescent
Nov 10
First Quarter
Nov 17
Full
Nov 25
Last Quarter
Dec 2
New

Hourly Weather History & Observations

Time (EST) Temp. Windchill Dew Point Humidity Pressure Visibility Wind Dir Wind Speed Gust Speed Precip Events Conditions
12:56 AM 57.9 °F - 50.0 °F 75% 29.99 in 10.0 mi Variable 5.8 mph - N/A   Overcast
1:56 AM 60.1 °F - 51.1 °F 72% 29.96 in 10.0 mi South 5.8 mph - N/A   Overcast
2:56 AM 60.1 °F - 51.1 °F 72% 29.93 in 10.0 mi SSW 8.1 mph 16.1 mph N/A   Overcast
3:56 AM 59.0 °F - 51.1 °F 75% 29.89 in 10.0 mi SSW 13.8 mph 23.0 mph N/A   Overcast
4:56 AM 60.1 °F - 51.1 °F 72% 29.87 in 10.0 mi SSW 11.5 mph 26.5 mph N/A   Overcast
5:56 AM 59.0 °F - 51.1 °F 75% 29.88 in 10.0 mi West 9.2 mph 17.3 mph N/A   Overcast
6:30 AM 57.2 °F - 51.8 °F 82% 29.88 in 2.5 mi WSW 6.9 mph - 0.02 in Rain Rain
6:41 AM 57.2 °F - 51.8 °F 82% 29.87 in 3.0 mi West 8.1 mph - 0.03 in Rain Light Rain
6:56 AM 55.9 °F - 52.0 °F 87% 29.88 in 5.0 mi Variable 3.5 mph - 0.04 in Rain Light Rain
7:56 AM 55.9 °F - 53.1 °F 90% 29.89 in 6.0 mi NNW 3.5 mph - 0.06 in Rain Light Rain
8:56 AM 55.0 °F - 53.1 °F 93% 29.89 in 4.0 mi NW 8.1 mph - 0.01 in Rain Light Rain
9:17 AM 55.4 °F - 53.6 °F 94% 29.89 in 4.0 mi NW 6.9 mph - 0.00 in Rain Light Rain
9:26 AM 55.4 °F - 53.6 °F 94% 29.89 in 5.0 mi WNW 5.8 mph - 0.01 in Rain Light Rain
9:33 AM 55.4 °F - 53.6 °F 94% 29.89 in 5.0 mi WNW 4.6 mph - 0.01 in Rain Light Rain
9:42 AM 55.4 °F - 53.6 °F 94% 29.88 in 6.0 mi WNW 8.1 mph - 0.01 in Rain Light Rain
9:56 AM 55.0 °F - 52.0 °F 89% 29.89 in 10.0 mi WNW 9.2 mph - 0.01 in Rain Light Rain
10:56 AM 54.0 °F - 51.1 °F 90% 29.89 in 5.0 mi NW 11.5 mph - 0.04 in Rain Rain
11:43 AM 53.6 °F - 51.8 °F 94% 29.89 in 6.0 mi NW 6.9 mph - 0.05 in Rain Light Rain
11:56 AM 54.0 °F - 51.1 °F 90% 29.89 in 5.0 mi NW 10.4 mph - 0.06 in Rain Light Rain
12:10 PM 53.6 °F - 50.0 °F 88% 29.88 in 4.0 mi WNW 10.4 mph - 0.03 in Rain Rain
12:56 PM 53.1 °F - 48.0 °F 83% 29.89 in 10.0 mi NW 15.0 mph - 0.05 in Rain Light Rain
1:56 PM 51.1 °F - 41.0 °F 68% 29.91 in 10.0 mi NW 17.3 mph 29.9 mph 0.00 in   Mostly Cloudy
2:56 PM 54.0 °F - 39.9 °F 59% 29.91 in 10.0 mi NW 16.1 mph 25.3 mph N/A   Mostly Cloudy
3:56 PM 51.1 °F - 37.0 °F 59% 29.92 in 10.0 mi NW 12.7 mph 23.0 mph N/A   Mostly Cloudy
4:56 PM 50.0 °F - 34.0 °F 54% 29.94 in 10.0 mi NW 16.1 mph - N/A   Mostly Cloudy
5:56 PM 48.0 °F - 33.1 °F 56% 29.96 in 10.0 mi NNW 6.9 mph - N/A   Scattered Clouds
6:56 PM 46.9 °F - 30.9 °F 54% 29.99 in 10.0 mi NW 3.5 mph - N/A   Mostly Cloudy
7:56 PM 46.9 °F - 33.1 °F 59% 30.00 in 10.0 mi NW 18.4 mph 25.3 mph N/A   Mostly Cloudy
8:56 PM 46.0 °F 38.5 °F 32.0 °F 58% 30.03 in 10.0 mi NW 19.6 mph 27.6 mph N/A   Overcast
9:56 PM 45.0 °F 37.6 °F 26.1 °F 48% 30.04 in 10.0 mi NW 17.3 mph 25.3 mph N/A   Overcast
10:56 PM 43.0 °F 35.4 °F 23.0 °F 45% 30.05 in 10.0 mi WNW 16.1 mph - N/A   Scattered Clouds
11:56 PM 41.0 °F 33.1 °F 21.9 °F 47% 30.05 in 10.0 mi NW 15.0 mph 24.2 mph N/A   Partly Cloudy